Historique des stations

Orages en cours, pour les suivre, cliquer ici

Station météo de Véretz

Altitude de la station : 70 m







Données météorologiques pour le 12/08/2020
Date
Heure
Températures Humidité Point de rosée Vitesse
du vent
Direction Rafales Windchill Pression Pluviométrie
Cumul
Date
Heure
Températures Humidité Point de rosée Vitesse
du vent
Direction Rafales Windchill Pression Pluviométrie
Cumul
12/08/2020 22:2922.4 °C85 %20.0 °C-N21 km/h22.2 1012 hPa0.2 mm
12/08/2020 22:1522.9 °C83 %20.0 °C-N21 km/h22.8 1012 hPa0.2 mm
12/08/2020 22:0023.3 °C83 %20.6 °C-N21 km/h23.3 1011 hPa0.2 mm
12/08/2020 21:4423.0 °C83 %20.0 °C-N21 km/h22.8 1011 hPa0.2 mm
12/08/2020 21:2923.1 °C83 %20.0 °C-N21 km/h23.3 1011 hPa0.2 mm
12/08/2020 21:1423.6 °C82 %20.6 °C-N21 km/h23.3 1011 hPa0.2 mm
12/08/2020 21:0024.4 °C80 %20.6 °C-NNO21 km/h24.4 1011 hPa0.2 mm
12/08/2020 20:4425.6 °C76 %21.1 °C-NNO21 km/h25.6 1011 hPa0.2 mm
12/08/2020 20:2925.9 °C74 %21.1 °C-NNO21 km/h26.1 1011 hPa0.2 mm
12/08/2020 20:1426.3 °C73 %21.1 °C-NO21 km/h26.1 1011 hPa0.2 mm
12/08/2020 20:0026.7 °C72 %21.1 °C-O21 km/h26.7 1011 hPa0.2 mm
12/08/2020 19:4426.9 °C72 %21.7 °C-NO21 km/h27.2 1011 hPa0.2 mm
12/08/2020 19:2927.6 °C71 %21.7 °C-ONO21 km/h27.8 1010 hPa0.2 mm
12/08/2020 19:1427.8 °C69 %21.7 °C-NO21 km/h27.8 1010 hPa0.2 mm
12/08/2020 19:0027.8 °C69 %21.7 °C-NNO21 km/h27.8 1010 hPa0.2 mm
12/08/2020 18:4427.2 °C71 %21.7 °C-SO21 km/h27.2 1010 hPa0.2 mm
12/08/2020 18:2928.0 °C69 %21.7 °C-OSO21 km/h27.8 1009 hPa0.2 mm
12/08/2020 18:1427.4 °C70 %21.7 °C-OSO21 km/h27.2 1010 hPa0.2 mm
12/08/2020 17:5927.4 °C70 %21.7 °C-O21 km/h27.2 1010 hPa0.2 mm
12/08/2020 17:4527.4 °C71 %21.7 °C-NNE21 km/h27.2 1010 hPa0.2 mm
12/08/2020 17:2926.8 °C73 %21.7 °C-N21 km/h26.7 1010 hPa0.2 mm
12/08/2020 17:1426.4 °C75 %21.7 °C-N21 km/h26.7 1011 hPa0.2 mm
12/08/2020 17:0026.3 °C75 %21.7 °C-NO21 km/h26.1 1011 hPa0.2 mm
12/08/2020 16:4526.2 °C74 %21.1 °C-NO21 km/h26.1 1011 hPa0.2 mm
12/08/2020 16:2926.6 °C75 %21.7 °C-NNO21 km/h26.7 1012 hPa0.2 mm
12/08/2020 16:1426.9 °C73 %21.7 °C-NO21 km/h27.2 1012 hPa0.2 mm
12/08/2020 16:0027.0 °C74 %22.2 °C-O18 km/h27.2 1012 hPa0.2 mm
12/08/2020 15:4426.4 °C75 %21.7 °C-OSO13 km/h26.7 1011 hPa0.2 mm
12/08/2020 15:3025.8 °C77 %21.7 °C2 km/hO13 km/h26.1 1011 hPa0.2 mm
12/08/2020 15:1526.1 °C77 %21.7 °C-O13 km/h26.1 1011 hPa0.2 mm
12/08/2020 14:5925.6 °C77 %21.1 °C-O13 km/h25.6 1011 hPa0.2 mm
12/08/2020 14:4427.7 °C64 %20.6 °C-S13 km/h27.8 1012 hPa-
12/08/2020 14:3028.1 °C64 %20.6 °C-SSO5 km/h28.3 1011 hPa-
12/08/2020 14:1528.2 °C63 %20.6 °C-O5 km/h28.3 1011 hPa-
12/08/2020 13:5928.4 °C62 %20.6 °C-O5 km/h28.3 1011 hPa-
12/08/2020 13:4428.4 °C63 %20.6 °C-SE2 km/h28.3 1011 hPa-
12/08/2020 13:2827.9 °C64 %20.6 °C-SE2 km/h27.8 1011 hPa-
12/08/2020 13:1427.9 °C63 %20.0 °C-NO2 km/h27.8 1011 hPa-
12/08/2020 12:5928.9 °C62 %21.1 °C-O2 km/h28.9 1011 hPa-
12/08/2020 12:4527.6 °C66 %20.6 °C---27.8 1011 hPa-
12/08/2020 12:2926.4 °C70 %20.6 °C---26.7 1011 hPa-
12/08/2020 12:1426.5 °C69 %20.6 °C---26.7 1011 hPa-
12/08/2020 11:5926.4 °C68 %20.0 °C---26.7 1011 hPa-
12/08/2020 11:4326.5 °C68 %20.0 °C---26.7 1011 hPa-
12/08/2020 11:2926.3 °C68 %20.0 °C---26.1 1011 hPa-
12/08/2020 11:1426.6 °C69 %20.6 °C---26.7 1011 hPa-
12/08/2020 11:0025.2 °C73 %20.0 °C---25.0 1011 hPa-
12/08/2020 10:4324.9 °C73 %19.4 °C---25.0 1011 hPa-
12/08/2020 10:2924.6 °C75 %20.0 °C---24.4 1011 hPa-
12/08/2020 10:1424.6 °C76 %20.0 °C---24.4 1011 hPa-
12/08/2020 09:5924.0 °C77 %19.4 °C---23.9 1011 hPa-
12/08/2020 09:4523.6 °C80 %20.0 °C---23.9 1011 hPa-
12/08/2020 09:2923.4 °C81 %20.0 °C---23.3 1011 hPa-
12/08/2020 09:1422.7 °C83 %19.4 °C---22.8 1011 hPa-
12/08/2020 08:5922.1 °C86 %19.4 °C---22.2 1011 hPa-
12/08/2020 08:4421.9 °C87 %19.4 °C---22.2 1011 hPa-
12/08/2020 08:3021.7 °C86 %19.4 °C---21.7 1011 hPa-
12/08/2020 08:1321.6 °C87 %19.4 °C---21.7 1011 hPa-
12/08/2020 07:5921.3 °C87 %18.9 °C---21.1 1011 hPa-
12/08/2020 07:4521.1 °C88 %18.9 °C---21.1 1011 hPa-
12/08/2020 07:2920.7 °C89 %18.9 °C---20.6 1011 hPa-
12/08/2020 07:1420.4 °C89 %18.3 °C---20.6 1011 hPa-
12/08/2020 06:5820.3 °C89 %18.3 °C---20.6 1011 hPa-
12/08/2020 06:4420.4 °C89 %18.3 °C---20.6 1011 hPa-
12/08/2020 06:2920.4 °C89 %18.3 °C---20.6 1011 hPa-
12/08/2020 06:1420.4 °C89 %18.3 °C---20.6 1011 hPa-
12/08/2020 05:5820.2 °C89 %18.3 °C---20.0 1011 hPa-
12/08/2020 05:4420.2 °C90 %18.3 °C---20.0 1011 hPa-
12/08/2020 05:3020.2 °C90 %18.3 °C---20.0 1011 hPa-
12/08/2020 05:1320.0 °C90 %18.3 °C---20.0 1011 hPa-
12/08/2020 04:5919.7 °C90 %17.8 °C---19.4 1011 hPa-
12/08/2020 04:4519.7 °C89 %17.8 °C---20.0 1011 hPa-
12/08/2020 04:2920.2 °C90 %18.3 °C---20.0 1011 hPa-
12/08/2020 04:1420.1 °C89 %18.3 °C---20.0 1011 hPa-
12/08/2020 03:5920.5 °C90 %18.9 °C---20.6 1011 hPa-
12/08/2020 03:4419.9 °C90 %18.3 °C---20.0 1011 hPa-
12/08/2020 03:2919.6 °C89 %17.8 °C---19.4 1012 hPa-
12/08/2020 03:1420.0 °C89 %18.3 °C---20.0 1012 hPa-
12/08/2020 02:5920.3 °C88 %18.3 °C---20.6 1012 hPa-
12/08/2020 02:4420.2 °C87 %17.8 °C---20.0 1012 hPa-
12/08/2020 02:3020.7 °C87 %18.3 °C---20.6 1012 hPa-
12/08/2020 02:1520.7 °C87 %18.3 °C---20.6 1012 hPa-
12/08/2020 01:5920.8 °C87 %18.3 °C---20.6 1012 hPa-
12/08/2020 01:4420.8 °C87 %18.3 °C---20.6 1012 hPa-
12/08/2020 01:2921.0 °C86 %18.3 °C---21.1 1012 hPa-
12/08/2020 01:1421.3 °C86 %18.9 °C---21.1 1012 hPa-
12/08/2020 00:5921.4 °C85 %18.9 °C---21.7 1012 hPa-
12/08/2020 00:4521.9 °C83 %18.9 °C---22.2 1012 hPa-
12/08/2020 00:2922.4 °C82 %19.4 °C---22.2 1012 hPa-
12/08/2020 00:1422.7 °C82 %19.4 °C---22.8 1012 hPa-


Minima :

Température : 19.6 °C
Humidité : 62 %
Point de rosée : 17.8 °C
Vent moyen : 2 km/h
Windchill : 19.4
Pression atm. : 1009 hPa
Maxima :

Température : 28.9 °C
Humidité : 90 %
Point de rosée : 22.2 °C
Vent moyen : 2 km/h
Windchill : 28.9
Pression atm. : 1012 hPa
Rafales max : 21 km/h
Cumul de pluie sur 24H : 0.2 mm

Véretz est une commune du département Indre-et-Loire (37), elle est soumise a un climat océanique dégradé (norme climatique d'Orléans-Bricy).
La station météorologique du réseau de l'association la plus proche de Véretz est celle de Reugny
Site du propriétaire de la station : http://www.meteo-veretz.fr/



Icône Facebook Association Météo Centre Icône Twitter Association Météo Centre Icône Chaîne Youtube Association Météo Centre Icône contact Association Météo Centre Icône Insta Association Météo Centre